Location: Bannatyne
(13.0833°N, 59.5333°W)
Time: 15:31:44
(UTC+00:00)

Vanguard 3 - Pass Details

Date: 28 January 2020
Orbit: 508 x 3263 km, 33.3° (Epoch: 23 February)

Event Time Altitude Azimuth Distance (km) Brightness Sun altitude
Rises 22:52:44 0° 289° (WNW) 7,114 12.9 -13.8°
Reaches altitude 10° 22:58:17 10° 297° (WNW) 6,189 12.3 -15.1°
Maximum altitude 23:15:51 37° 358° (N) 4,032 10.5 -19.2°
Enters shadow 23:25:20 21° 48° (NE) 4,312 10.3 -21.4°
Drops below altitude 10° 23:29:26 10° 61° (ENE) 4,849 - -22.4°
Sets 23:33:07 0° 70° (ENE) 5,493 - -23.3°
